Home   Weather   Londrina   Past weeks
Flag for Brazil

Past Weather in Londrina, Paraná, Brazil — Yesterday and Last 2 Weeks

Now
66 °F

Fog.


Feels Like: 66 °F
Forecast: 85 / 62 °F
Wind: No wind

Location: Londrina Aeroporto

Current Time: Oct 22, 2019 at 9:05:19 am

Latest Report: Oct 22, 2019 at 8:00 am


Visibility: 1 mi

Pressure: 29.95 "Hg (27.87 "Hg at 615m altitude)

Humidity: 100%

Dew Point: 66 °F

Location of LondrinaLocation

Past Weather in Londrina — Graph

°F

Londrina Temperature Yesterday

Maximum temperature yesterday: 68 °F (at 12:00 am)
Minimum temperature yesterday: 63 °F (at 3:00 am)
Average temperature yesterday: 65 °F

High & Low Weather Summary for the Past Weeks

 TemperatureHumidityPressure
High102 °F (Oct 13, 3:00 pm)100% (Oct 7, 8:00 am)30.12 "Hg (Oct 7, 8:00 am)
Low63 °F (Oct 7, 8:00 am)20% (Oct 12, 2:00 pm)29.83 "Hg (Oct 20, 5:00 pm)
Average78 °F62%30.00 "Hg
* Reported Oct 7 8:00 am — Oct 22 8:00 am, Londrina. Weather by CustomWeather, © 2019

Note: Actual official high and low records may vary slightly from our data, if they occured in-between our weather recording intervals... More about our weather records

Advertising

Londrina Weather History for the Previous 24 Hours

Scroll right to see more
 ConditionsComfort  
Time TempWeatherWind HumidityBarometerVisibility
8:00 am
Tue, Oct 22
66 °FFog.No wind100%29.95 "Hg1 mi
7:33 am66 °FFog.No wind100%29.95 "Hg1 mi
7:00 am66 °FFog.No wind94%29.92 "Hg1 mi
6:17 am64 °FFog.No wind100%29.92 "Hg1 mi
6:00 am64 °FFog.No wind100%29.92 "Hg0 mi
5:40 am66 °FFog.No wind94%29.92 "Hg1 mi
5:00 am64 °FFog.No wind100%29.89 "Hg1 mi
4:00 am64 °FDrizzle. Mostly cloudy.No wind100%29.89 "Hg1 mi
3:00 am64 °FDrizzle. Low clouds.No wind100%29.89 "Hg1 mi
2:00 am66 °FPassing clouds.No wind94%29.89 "Hg1 mi
1:00 am66 °FFog.No wind94%29.92 "Hg3 mi
12:00 am66 °FPassing clouds.1 mph94%29.92 "HgN/A
11:00 pm
Mon, Oct 21
66 °FPassing clouds.No wind94%29.92 "HgN/A
10:00 pm64 °FPassing clouds.No wind100%29.92 "HgN/A
9:00 pm66 °FPassing clouds.No wind94%29.89 "HgN/A
8:22 pm66 °FPassing clouds.No wind94%29.89 "HgN/A
8:00 pm64 °FPassing clouds.No wind100%29.86 "HgN/A
7:00 pm64 °FPassing clouds.1 mph100%29.86 "HgN/A
6:36 pm66 °FPassing clouds.1 mph94%29.86 "HgN/A
6:00 pm64 °FPartly sunny.No wind100%29.83 "HgN/A
5:00 pm64 °FFog.3 mph100%29.83 "Hg2 mi
4:00 pm64 °FFog.5 mph100%29.83 "Hg2 mi
3:14 pm63 °FThunderstorms. Partly sunny.No wind100%29.86 "Hg2 mi
3:00 pm63 °FThunderstorms. Fog.10 mph100%29.86 "Hg1 mi
2:34 pm63 °FThunderstorms. Broken clouds.10 mph100%29.86 "Hg2 mi
2:00 pm63 °FThunderstorms. Partly sunny.6 mph100%29.89 "Hg2 mi
1:00 pm63 °FThunderstorms. Partly sunny.5 mph100%29.92 "Hg2 mi
12:00 pm64 °FThunderstorms. Partly sunny.9 mph94%29.98 "Hg1 mi
11:40 am66 °FThunderstorms. Partly sunny.6 mph83%29.98 "Hg6 mi
11:00 am68 °FPartly sunny.6 mph73%29.92 "HgN/A
10:00 am66 °FPartly sunny.2 mph78%29.95 "HgN/A
9:00 am64 °FBroken clouds.7 mph83%29.95 "HgN/A
Weather by CustomWeather, © 2019

See weather overview